Location: Barruelo
(41.2448°N, 3.8231°W)
Time: 22:47:31
(UTC+00:00)

Meteor 2-20 Rocket - Pass Details

Date: 11 December 2025
Orbit: 871 x 1024 km, 82.5° (Epoch: 14 January)

Event Time Altitude Azimuth Distance (km) Brightness Sun altitude
Rises 18:31:56 0° 183° (S) 3,697 7.8 -19.1°
Reaches altitude 10° 18:34:29 10° 183° (S) 2,734 7.0 -19.6°
Maximum altitude 18:40:46 83° 96° (E) 971 4.3 -20.8°
Drops below altitude 10° 18:46:50 10° 10° (N) 2,645 6.6 -21.9°
Enters shadow 18:48:16 - 9° (N) 3,192 7.0 -22.1°
